Tucson, AZ

5:11 AM MST on January 19, 2018 (GMT -0700)
Tucson International

Weather History for KTUS - November, 2012

Change the Weather History Date:

Wednesday, November 7, 2012

  Actual Average Record
Temperature  
Mean Temperature 72 °F 63 °F  
Max Temperature 90 °F 77 °F 90 °F (2007)
Min Temperature 54 °F 49 °F 28 °F (1947)
Degree Days  
Heating Degree Days 0 4  
Month to date heating degree days 0 21  
Since 1 July heating degree days 2 45  
Cooling Degree Days 7 2  
Month to date cooling degree days 38 16  
Year to date cooling degree days 3571 3135  
Growing Degree Days 22 (Base 50)    
Moisture  
Dew Point 26 °F    
Average Humidity 20    
Maximum Humidity 30    
Minimum Humidity 9    
Precipitation  
Precipitation 0.00 in 0.01 in 0.54 in (1963)
Month to date precipitation 0.00 0.12  
Year to date precipitation 6.70 10.21  
Snow  
Snow 0.00 in - - ()
Month to date snowfall 0.0  
Snow Depth 0.00 in    
Sea Level Pressure  
Sea Level Pressure 29.95 in    
Wind  
Wind Speed 6 mph (South)    
Max Wind Speed 14 mph    
Max Gust Speed 20 mph    
Visibility 10 miles    
Events      
T = Trace of Precipitation, MM = Missing Value Source: NWS Daily Summary

Daily Weather History Graph

Daily Weather History Graph

Search for Another Location

Airport or City:

Trip Planner

Search our weather history database for the weather conditions in past years. The results will help you decide how hot, cold, wet, or windy it might be!

Date:

Astronomy

Nov. 07, 2012 Rise Set
Actual Time 6:46 AM MST 5:28 PM MST
Civil Twilight 6:20 AM MST 5:53 PM MST
Nautical Twilight 5:51 AM MST 6:23 PM MST
Astronomical Twilight 5:22 AM MST 6:52 PM MST
Moon 12:07 AM MST (11/7) 1:17 PM MST (11/7)
Length of Visible Light 11h 33m
Length of Day
10h 42m
Last Quarter, 42% of the Moon is Illuminated
Nov 7
Last Quarter
Nov 13
New
Nov 20
First Quarter
Nov 28
Full
Dec 6
Last Quarter

Hourly Weather History & Observations

Time (MST) Temp. Dew Point Humidity Pressure Visibility Wind Dir Wind Speed Gust Speed Precip Events Conditions
12:53 AM 60.1 °F 23.0 °F 24% 30.01 in 10.0 mi SE 8.1 mph - N/A   Clear
1:53 AM 57.0 °F 23.0 °F 27% 30.01 in 10.0 mi South 5.8 mph - N/A   Clear
2:53 AM 57.0 °F 23.0 °F 27% 30.00 in 10.0 mi SSE 5.8 mph - N/A   Clear
3:53 AM 57.0 °F 24.1 °F 28% 29.99 in 10.0 mi SE 5.8 mph - N/A   Clear
4:53 AM 57.2 °F 23.0 °F 27% 30.10 in 10.0 mi SSE 10.4 mph - N/A   Clear
5:53 AM 55.0 °F 23.0 °F 29% 30.01 in 10.0 mi SSE 9.2 mph - N/A   Clear
6:53 AM 55.0 °F 24.1 °F 30% 30.03 in 10.0 mi SSE 10.4 mph - N/A   Clear
7:53 AM 59.0 °F 24.1 °F 26% 30.04 in 10.0 mi SSE 10.4 mph - N/A   Clear
8:53 AM 64.9 °F 25.0 °F 22% 30.04 in 10.0 mi SSE 9.2 mph - N/A   Clear
9:53 AM 72.0 °F 25.0 °F 17% 30.03 in 10.0 mi SSE 6.9 mph - N/A   Clear
10:53 AM 79.0 °F 25.0 °F 14% 29.99 in 10.0 mi SSE 5.8 mph - N/A   Clear
11:53 AM 84.0 °F 24.1 °F 11% 29.96 in 10.0 mi Variable 5.8 mph - N/A   Clear
12:53 PM 88.0 °F 23.0 °F 9% 29.91 in 10.0 mi Calm Calm - N/A   Clear
1:53 PM 89.1 °F 26.1 °F 10% 29.87 in 10.0 mi Calm Calm - N/A   Clear
2:53 PM 89.1 °F 26.1 °F 10% 29.86 in 10.0 mi Variable 4.6 mph - N/A   Clear
3:53 PM 89.1 °F 27.0 °F 11% 29.84 in 10.0 mi NW 5.8 mph - N/A   Clear
4:53 PM 86.0 °F 27.0 °F 12% 29.85 in 10.0 mi WNW 8.1 mph - N/A   Clear
5:53 PM 82.0 °F 27.0 °F 13% 29.87 in 10.0 mi WNW 3.5 mph - N/A   Clear
6:53 PM 78.1 °F 28.9 °F 17% 29.90 in 10.0 mi Calm Calm - N/A   Clear
7:53 PM 73.9 °F 28.9 °F 19% 29.91 in 10.0 mi West 4.6 mph - N/A   Clear
8:53 PM 72.0 °F 30.0 °F 21% 29.91 in 10.0 mi West 5.8 mph - N/A   Clear
9:53 PM 68.0 °F 28.9 °F 23% 29.92 in 10.0 mi South 4.6 mph - N/A   Clear
10:53 PM 66.0 °F 28.9 °F 25% 29.91 in 10.0 mi South 5.8 mph - N/A   Clear
11:53 PM 66.9 °F 28.9 °F 24% 29.88 in 10.0 mi SSE 5.8 mph - N/A   Clear